IRA3KP OOMS-OIIE

Flight info

Callsign IRA3KP
Flight time 2h 2m
Altitude 34000
Route MCT T508 DAPOK P574 NORGA/N0464F330 R401 GABKO M318 ASMUK/N0461F340 W32 ROVAD/N0434F280 G208 RADAL
Aircraft A321/M-SDE3FGHIRWY/LB1

Departure

Time 2026-05-07 16:11
Airport Muscat International Airport (OOMS)

Arrival

Time 2026-05-07 18:14
Airport Imam Khomeini International Airport (OIIE)
Time Latitude Longitude Altitude Speed Heading
2026-05-07 15:50 23.60166 58.28327 37 ft 0 kts 174°
2026-05-07 16:03 23.60179 58.28326 36 ft 3 kts 174°
2026-05-07 16:03 23.60203 58.28323 37 ft 3 kts 172°
2026-05-07 16:03 23.60226 58.28318 34 ft 3 kts 162°
2026-05-07 16:03 23.60247 58.28308 36 ft 3 kts 142°
2026-05-07 16:04 23.60261 58.28291 38 ft 3 kts 95°
2026-05-07 16:04 23.60261 58.28285 38 ft 0 kts 85°
2026-05-07 16:05 23.60261 58.28286 38 ft 1 kts 85°
2026-05-07 16:05 23.60268 58.28324 37 ft 10 kts 66°
2026-05-07 16:06 23.60354 58.28349 38 ft 18 kts 349°
2026-05-07 16:06 23.60400 58.28346 38 ft 0 kts 358°
2026-05-07 16:06 23.60434 58.28344 38 ft 12 kts 357°
2026-05-07 16:06 23.60525 58.28363 38 ft 15 kts 47°
2026-05-07 16:07 23.60547 58.28481 38 ft 17 kts 83°
2026-05-07 16:07 23.60561 58.28619 36 ft 20 kts 85°
2026-05-07 16:07 23.60573 58.28778 37 ft 22 kts 82°
2026-05-07 16:07 23.60587 58.28957 37 ft 25 kts 84°
2026-05-07 16:08 23.60601 58.29158 37 ft 28 kts 86°
2026-05-07 16:08 23.60614 58.29380 36 ft 31 kts 85°
2026-05-07 16:08 23.60632 58.29543 36 ft 15 kts 78°
2026-05-07 16:08 23.60704 58.29602 35 ft 13 kts
2026-05-07 16:09 23.60795 58.29597 34 ft 13 kts 354°
2026-05-07 16:09 23.60876 58.29572 34 ft 11 kts 328°
2026-05-07 16:09 23.60889 58.29508 35 ft 8 kts 265°
2026-05-07 16:09 23.60889 58.29499 35 ft 0 kts 264°
2026-05-07 16:10 23.60879 58.29393 36 ft 45 kts 264°
2026-05-07 16:10 23.60833 58.28818 39 ft 105 kts 265°
2026-05-07 16:10 23.60755 58.27834 38 ft 153 kts 265°
2026-05-07 16:10 23.60652 58.26545 44 ft 188 kts 264°
2026-05-07 16:11 23.60564 58.25071 412 ft 191 kts 268°
2026-05-07 16:11 23.60700 58.23724 1192 ft 175 kts 282°
2026-05-07 16:11 23.61010 58.22426 1414 ft 182 kts 288°
2026-05-07 16:11 23.61387 58.21078 1547 ft 194 kts 289°
2026-05-07 16:12 23.61807 58.19608 1662 ft 205 kts 289°
2026-05-07 16:12 23.62234 58.18112 1790 ft 215 kts 289°
2026-05-07 16:12 23.62681 58.16527 1911 ft 224 kts 288°
2026-05-07 16:12 23.63156 58.14839 1993 ft 241 kts 289°
2026-05-07 16:13 23.63666 58.13030 2144 ft 258 kts 288°
2026-05-07 16:13 23.64200 58.11129 2536 ft 265 kts 288°
2026-05-07 16:13 23.64739 58.09195 3035 ft 267 kts 288°
2026-05-07 16:13 23.65279 58.07250 3560 ft 269 kts 288°
2026-05-07 16:14 23.65813 58.05330 4083 ft 269 kts 288°
2026-05-07 16:14 23.66361 58.03350 4660 ft 270 kts 288°
2026-05-07 16:14 23.66897 58.01410 5191 ft 271 kts 287°
2026-05-07 16:14 23.67447 57.99418 5742 ft 272 kts 287°
2026-05-07 16:15 23.67994 57.97441 6281 ft 273 kts 287°
2026-05-07 16:15 23.68540 57.95481 6774 ft 274 kts 287°
2026-05-07 16:15 23.69113 57.93465 7260 ft 276 kts 290°
2026-05-07 16:15 23.69958 57.91593 7632 ft 285 kts 303°
2026-05-07 16:16 23.71213 57.89802 7760 ft 303 kts 308°
2026-05-07 16:16 23.72543 57.87977 7877 ft 319 kts 308°
2026-05-07 16:16 23.73956 57.86031 8018 ft 333 kts 308°
2026-05-07 16:16 23.75409 57.84024 8427 ft 339 kts 308°
2026-05-07 16:17 23.76872 57.82000 8875 ft 342 kts 307°
2026-05-07 16:17 23.78353 57.79944 9356 ft 346 kts 307°
2026-05-07 16:17 23.79842 57.77876 9826 ft 349 kts 307°
2026-05-07 16:17 23.81353 57.75782 10255 ft 353 kts 308°
2026-05-07 16:18 23.82888 57.73653 10663 ft 357 kts 308°
2026-05-07 16:18 23.84429 57.71510 11085 ft 361 kts 308°
2026-05-07 16:18 23.85991 57.69339 11499 ft 366 kts 308°
2026-05-07 16:18 23.87572 57.67142 11919 ft 370 kts 308°
2026-05-07 16:19 23.89158 57.64935 12361 ft 374 kts 308°
2026-05-07 16:19 23.90782 57.62674 12786 ft 378 kts 309°
2026-05-07 16:19 23.92415 57.60399 13203 ft 383 kts 309°
2026-05-07 16:19 23.94071 57.58094 13622 ft 388 kts 309°
2026-05-07 16:20 23.95744 57.55762 14020 ft 391 kts 309°
2026-05-07 16:20 23.97416 57.53426 14488 ft 393 kts 309°
2026-05-07 16:20 23.99105 57.51070 14936 ft 394 kts 309°
2026-05-07 16:20 24.00804 57.48697 15402 ft 395 kts 309°
2026-05-07 16:21 24.02503 57.46326 15863 ft 397 kts 309°
2026-05-07 16:21 24.04208 57.43946 16301 ft 398 kts 309°
2026-05-07 16:21 24.05918 57.41554 16752 ft 400 kts 309°
2026-05-07 16:21 24.07629 57.39155 17190 ft 401 kts 309°
2026-05-07 16:22 24.09351 57.36744 17612 ft 402 kts 309°
2026-05-07 16:22 24.11076 57.34327 18036 ft 404 kts 309°
2026-05-07 16:22 24.12804 57.31901 18405 ft 405 kts 309°
2026-05-07 16:22 24.13951 57.30288 18636 ft 406 kts 309°
2026-05-07 16:23 24.15690 57.27840 18971 ft 407 kts 309°
2026-05-07 16:23 24.18003 57.24591 19438 ft 409 kts 309°
2026-05-07 16:23 24.19186 57.22931 19677 ft 410 kts 309°
2026-05-07 16:23 24.21512 57.19664 20128 ft 412 kts 309°
2026-05-07 16:24 24.23277 57.17183 20479 ft 413 kts 308°
2026-05-07 16:24 24.25047 57.14695 20801 ft 415 kts 308°
2026-05-07 16:24 24.26248 57.13004 21017 ft 416 kts 308°
2026-05-07 16:24 24.28027 57.10497 21340 ft 418 kts 308°
2026-05-07 16:25 24.29814 57.07979 21658 ft 419 kts 308°
2026-05-07 16:25 24.31585 57.05480 21973 ft 421 kts 308°
2026-05-07 16:25 24.33386 57.02942 22268 ft 423 kts 308°
2026-05-07 16:25 24.35198 57.00387 22576 ft 425 kts 308°
2026-05-07 16:26 24.37014 56.97821 22862 ft 427 kts 308°
2026-05-07 16:26 24.38837 56.95240 23151 ft 429 kts 308°
2026-05-07 16:26 24.40668 56.92650 23427 ft 430 kts 308°
2026-05-07 16:26 24.42508 56.90055 23676 ft 432 kts 308°
2026-05-07 16:27 24.44363 56.87451 23926 ft 433 kts 308°
2026-05-07 16:27 24.46220 56.84846 24180 ft 434 kts 308°
2026-05-07 16:27 24.48082 56.82230 24426 ft 435 kts 307°
2026-05-07 16:27 24.49946 56.79605 24667 ft 437 kts 307°
2026-05-07 16:28 24.51815 56.76969 24913 ft 438 kts 307°
2026-05-07 16:28 24.53690 56.74325 25160 ft 439 kts 307°
2026-05-07 16:28 24.55552 56.71694 25404 ft 440 kts 307°
2026-05-07 16:28 24.57444 56.69016 25657 ft 441 kts 307°
2026-05-07 16:29 24.59326 56.66350 25910 ft 442 kts 307°
2026-05-07 16:29 24.61214 56.63679 26194 ft 443 kts 307°
2026-05-07 16:29 24.63104 56.61008 26453 ft 444 kts 307°
2026-05-07 16:29 24.65000 56.58326 26686 ft 445 kts 307°
2026-05-07 16:30 24.66878 56.55664 26915 ft 446 kts 306°
2026-05-07 16:30 24.68777 56.52965 27146 ft 447 kts 306°
2026-05-07 16:30 24.70683 56.50254 27387 ft 448 kts 306°
2026-05-07 16:30 24.72593 56.47536 27597 ft 449 kts 306°
2026-05-07 16:31 24.74504 56.44817 27814 ft 450 kts 306°
2026-05-07 16:31 24.76418 56.42090 28049 ft 451 kts 306°
2026-05-07 16:31 24.78336 56.39359 28291 ft 451 kts 306°
2026-05-07 16:31 24.80259 56.36622 28488 ft 452 kts 306°
2026-05-07 16:32 24.82161 56.33866 28699 ft 453 kts 305°
2026-05-07 16:32 24.84046 56.31077 28908 ft 454 kts 304°
2026-05-07 16:32 24.85917 56.28275 29126 ft 455 kts 304°
2026-05-07 16:32 24.87756 56.25445 29357 ft 453 kts 300°
2026-05-07 16:33 24.89309 56.22464 29679 ft 451 kts 297°
2026-05-07 16:33 24.90842 56.19454 29973 ft 449 kts 297°
2026-05-07 16:33 24.92377 56.16471 30222 ft 448 kts 297°
2026-05-07 16:33 24.93921 56.13486 30461 ft 447 kts 297°
2026-05-07 16:34 24.95460 56.10509 30716 ft 446 kts 297°
2026-05-07 16:34 24.96989 56.07548 30962 ft 445 kts 297°
2026-05-07 16:34 24.98536 56.04591 31187 ft 445 kts 298°
2026-05-07 16:34 25.00128 56.01667 31433 ft 444 kts 299°
2026-05-07 16:35 25.01745 55.98777 31678 ft 443 kts 300°
2026-05-07 16:35 25.03475 55.95944 31898 ft 445 kts 307°
2026-05-07 16:35 25.05642 55.93505 32122 ft 449 kts 317°
2026-05-07 16:35 25.08228 55.91550 32335 ft 453 kts 328°
2026-05-07 16:36 25.11136 55.90163 32526 ft 458 kts 339°
2026-05-07 16:36 25.14263 55.89437 32751 ft 463 kts 349°
2026-05-07 16:36 25.17464 55.89042 32979 ft 463 kts 349°
2026-05-07 16:36 25.20668 55.88658 33213 ft 462 kts 349°
2026-05-07 16:37 25.23867 55.88280 33455 ft 462 kts 349°
2026-05-07 16:37 25.27050 55.87898 33684 ft 461 kts 349°
2026-05-07 16:37 25.30199 55.87514 33798 ft 460 kts 349°
2026-05-07 16:38 25.36530 55.86744 33829 ft 456 kts 350°
2026-05-07 16:38 25.42861 55.86200 33829 ft 457 kts 352°
2026-05-07 16:39 25.49210 55.85842 33834 ft 457 kts 352°
2026-05-07 16:39 25.55557 55.85475 33837 ft 457 kts 352°
2026-05-07 16:40 25.61907 55.85043 33843 ft 457 kts 351°
2026-05-07 16:40 25.68248 55.84594 33850 ft 457 kts 351°
2026-05-07 16:41 25.74593 55.84148 33848 ft 457 kts 351°
2026-05-07 16:41 25.80939 55.83709 33846 ft 457 kts 351°
2026-05-07 16:42 25.87248 55.83052 33845 ft 454 kts 347°
2026-05-07 16:42 25.93491 55.82022 33856 ft 453 kts 345°
2026-05-07 16:43 25.99720 55.80950 33840 ft 454 kts 346°
2026-05-07 16:43 26.05969 55.79954 33842 ft 454 kts 346°
2026-05-07 16:44 26.12283 55.79236 33832 ft 457 kts 350°
2026-05-07 16:44 26.18667 55.78933 33842 ft 462 kts 357°
2026-05-07 16:45 26.25061 55.80097 33835 ft 469 kts
2026-05-07 16:45 26.31440 55.81428 33815 ft 469 kts
2026-05-07 16:46 26.37865 55.82707 33821 ft 468 kts
2026-05-07 16:46 26.44289 55.84025 33808 ft 469 kts
2026-05-07 16:47 26.50725 55.85385 33804 ft 469 kts
2026-05-07 16:47 26.57140 55.86744 33804 ft 470 kts
2026-05-07 16:48 26.63569 55.88088 33806 ft 470 kts
2026-05-07 16:48 26.69994 55.89439 33806 ft 470 kts
2026-05-07 16:49 26.76424 55.90787 33801 ft 470 kts
2026-05-07 16:49 26.82872 55.91781 33814 ft 466 kts 360°
2026-05-07 16:50 26.89330 55.92458 33806 ft 466 kts 359°
2026-05-07 16:50 26.95760 55.93131 33826 ft 466 kts 359°
2026-05-07 16:51 27.02178 55.93902 33812 ft 466 kts 360°
2026-05-07 16:51 27.08624 55.94722 33815 ft 466 kts 360°
2026-05-07 16:52 27.15082 55.95527 33821 ft 466 kts 360°
2026-05-07 16:52 27.21530 55.96320 33831 ft 466 kts 359°
2026-05-07 16:53 27.27991 55.97120 33835 ft 466 kts 359°
2026-05-07 16:53 27.34440 55.97911 33828 ft 466 kts 359°
2026-05-07 16:54 27.40912 55.98708 33841 ft 467 kts 359°
2026-05-07 16:54 27.47371 55.99512 33884 ft 467 kts 359°
2026-05-07 16:55 27.53792 56.00312 33872 ft 467 kts 359°
2026-05-07 16:55 27.60256 56.01116 33900 ft 468 kts 359°
2026-05-07 16:56 27.66707 56.01922 33912 ft 468 kts 359°
2026-05-07 16:56 27.76438 56.03134 33943 ft 469 kts 359°
2026-05-07 16:57 27.82905 56.03945 33923 ft 467 kts 359°
2026-05-07 16:57 27.89372 56.04749 33927 ft 467 kts 359°
2026-05-07 16:58 27.95842 56.05555 33929 ft 468 kts 359°
2026-05-07 16:58 28.02304 56.06365 33946 ft 470 kts 359°
2026-05-07 16:59 28.08877 56.07185 33935 ft 479 kts 359°
2026-05-07 16:59 28.15543 56.07781 33933 ft 478 kts 350°
2026-05-07 17:00 28.21962 56.06497 33943 ft 466 kts 338°
2026-05-07 17:00 28.28240 56.04604 33949 ft 467 kts 338°
2026-05-07 17:01 28.34517 56.02731 33945 ft 467 kts 338°
2026-05-07 17:01 28.40797 56.00865 33965 ft 467 kts 338°
2026-05-07 17:02 28.47086 55.98982 33983 ft 467 kts 338°
2026-05-07 17:02 28.53339 55.97103 34014 ft 468 kts 338°
2026-05-07 17:03 28.59625 55.95207 34015 ft 468 kts 337°
2026-05-07 17:03 28.65912 55.93309 34035 ft 468 kts 338°
2026-05-07 17:04 28.72228 55.91406 34063 ft 467 kts 337°
2026-05-07 17:04 28.78495 55.89521 34059 ft 467 kts 337°
2026-05-07 17:05 28.84782 55.87628 34056 ft 466 kts 337°
2026-05-07 17:05 28.91052 55.85732 34088 ft 466 kts 337°
2026-05-07 17:06 28.97317 55.83830 34082 ft 466 kts 337°
2026-05-07 17:06 29.03588 55.81920 34078 ft 466 kts 337°
2026-05-07 17:07 29.09847 55.80013 34083 ft 466 kts 337°
2026-05-07 17:07 29.16073 55.78118 34072 ft 466 kts 337°
2026-05-07 17:08 29.22388 55.76195 34070 ft 466 kts 337°
2026-05-07 17:08 29.28596 55.74312 34079 ft 466 kts 337°
2026-05-07 17:09 29.34915 55.72389 34117 ft 466 kts 337°
2026-05-07 17:09 29.41187 55.70459 34109 ft 466 kts 337°
2026-05-07 17:10 29.47413 55.68546 34122 ft 466 kts 337°
2026-05-07 17:10 29.53678 55.66625 34129 ft 465 kts 336°
2026-05-07 17:11 29.59500 55.63821 34152 ft 452 kts 326°
2026-05-07 17:11 29.64177 55.61139 34148 ft 452 kts 326°
2026-05-07 17:12 29.69803 55.57912 34161 ft 452 kts 326°
2026-05-07 17:12 29.75449 55.54667 34146 ft 452 kts 326°
2026-05-07 17:13 29.81077 55.51438 34156 ft 452 kts 325°
2026-05-07 17:13 29.86700 55.48210 34151 ft 452 kts 325°
2026-05-07 17:14 29.92326 55.44959 34144 ft 452 kts 325°
2026-05-07 17:14 29.97922 55.41723 34147 ft 452 kts 325°
2026-05-07 17:15 30.03545 55.38469 34144 ft 452 kts 325°
2026-05-07 17:15 30.09179 55.35214 34143 ft 453 kts 325°
2026-05-07 17:16 30.14814 55.31958 34143 ft 453 kts 325°
2026-05-07 17:16 30.20444 55.28700 34147 ft 453 kts 325°
2026-05-07 17:17 30.26078 55.25425 34156 ft 453 kts 324°
2026-05-07 17:17 30.31713 55.22144 34148 ft 454 kts 324°
2026-05-07 17:18 30.37353 55.18861 34151 ft 454 kts 325°
2026-05-07 17:18 30.42990 55.15582 34140 ft 453 kts 324°
2026-05-07 17:19 30.48638 55.12287 34132 ft 453 kts 324°
2026-05-07 17:19 30.54258 55.08997 34128 ft 452 kts 324°
2026-05-07 17:20 30.59859 55.05716 34120 ft 452 kts 324°
2026-05-07 17:20 30.65472 55.02432 34099 ft 452 kts 324°
2026-05-07 17:21 30.71083 54.99147 34106 ft 452 kts 324°
2026-05-07 17:21 30.76701 54.95854 34091 ft 452 kts 324°
2026-05-07 17:22 30.82300 54.92548 34075 ft 451 kts 324°
2026-05-07 17:22 30.87904 54.89227 34058 ft 451 kts 324°
2026-05-07 17:23 30.93500 54.85911 34056 ft 451 kts 324°
2026-05-07 17:23 30.99097 54.82597 34060 ft 451 kts 324°
2026-05-07 17:24 31.04657 54.79300 34039 ft 450 kts 324°
2026-05-07 17:24 31.10232 54.75984 34038 ft 450 kts 324°
2026-05-07 17:25 31.15804 54.72660 34032 ft 450 kts 324°
2026-05-07 17:25 31.21389 54.69333 34017 ft 450 kts 324°
2026-05-07 17:26 31.26987 54.66001 34006 ft 450 kts 324°
2026-05-07 17:26 31.32550 54.62672 34016 ft 450 kts 324°
2026-05-07 17:27 31.38127 54.59327 34024 ft 450 kts 324°
2026-05-07 17:27 31.43697 54.55986 34013 ft 450 kts 324°
2026-05-07 17:28 31.49281 54.52631 34015 ft 449 kts 324°
2026-05-07 17:28 31.54804 54.49253 34025 ft 449 kts 323°
2026-05-07 17:29 31.60339 54.45837 34000 ft 450 kts 323°
2026-05-07 17:29 31.65884 54.42431 34003 ft 450 kts 324°
2026-05-07 17:30 31.71437 54.39016 33990 ft 450 kts 324°
2026-05-07 17:30 31.76965 54.35606 34056 ft 451 kts 324°
2026-05-07 17:31 31.82516 54.32172 34077 ft 451 kts 324°
2026-05-07 17:31 31.88076 54.28736 34079 ft 452 kts 324°
2026-05-07 17:32 31.93639 54.25287 34092 ft 453 kts 324°
2026-05-07 17:32 31.99218 54.21822 34088 ft 453 kts 324°
2026-05-07 17:33 32.04797 54.18368 34054 ft 453 kts 324°
2026-05-07 17:33 32.10376 54.14907 34031 ft 453 kts 324°
2026-05-07 17:34 32.15954 54.11425 33979 ft 454 kts 324°
2026-05-07 17:34 32.21532 54.07940 33933 ft 454 kts 324°
2026-05-07 17:35 32.27127 54.04453 33959 ft 454 kts 323°
2026-05-07 17:35 32.32720 54.00957 33928 ft 455 kts 323°
2026-05-07 17:36 32.38316 53.97449 33910 ft 455 kts 324°
2026-05-07 17:36 32.43922 53.93933 33934 ft 455 kts 324°
2026-05-07 17:37 32.49515 53.90420 33938 ft 456 kts 323°
2026-05-07 17:37 32.55140 53.86880 33925 ft 456 kts 323°
2026-05-07 17:38 32.60745 53.83350 33928 ft 456 kts 323°
2026-05-07 17:38 32.66351 53.79817 33930 ft 456 kts 323°
2026-05-07 17:39 32.71933 53.76289 33928 ft 455 kts 323°
2026-05-07 17:39 32.77523 53.72756 33950 ft 456 kts 323°
2026-05-07 17:40 32.83119 53.69217 33930 ft 456 kts 323°
2026-05-07 17:40 32.88709 53.65667 33935 ft 455 kts 323°
2026-05-07 17:41 32.94265 53.62132 33938 ft 455 kts 323°
2026-05-07 17:41 32.99866 53.58576 33949 ft 455 kts 323°
2026-05-07 17:42 33.05469 53.55016 33949 ft 455 kts 323°
2026-05-07 17:42 33.11015 53.51469 33955 ft 454 kts 323°
2026-05-07 17:43 33.16577 53.47904 33960 ft 454 kts 323°
2026-05-07 17:43 33.22163 53.44328 33986 ft 454 kts 323°
2026-05-07 17:44 33.27716 53.40764 33981 ft 454 kts 323°
2026-05-07 17:44 33.33292 53.37189 33981 ft 454 kts 323°
2026-05-07 17:45 33.38864 53.33622 33992 ft 454 kts 323°
2026-05-07 17:45 33.44448 53.30038 33989 ft 454 kts 323°
2026-05-07 17:46 33.49996 53.26453 33990 ft 454 kts 322°
2026-05-07 17:46 33.55551 53.22854 34012 ft 454 kts 322°
2026-05-07 17:47 33.61120 53.19257 34003 ft 454 kts 322°
2026-05-07 17:47 33.66696 53.15657 33990 ft 454 kts 322°
2026-05-07 17:48 33.72242 53.12063 34015 ft 454 kts 322°
2026-05-07 17:48 33.77816 53.08436 34003 ft 454 kts 322°
2026-05-07 17:49 33.83363 53.04821 33999 ft 454 kts 322°
2026-05-07 17:49 33.88904 53.01212 33997 ft 454 kts 322°
2026-05-07 17:50 33.94444 52.97600 33985 ft 454 kts 322°
2026-05-07 17:50 34.00007 52.93968 33993 ft 454 kts 322°
2026-05-07 17:51 34.05562 52.90335 33992 ft 454 kts 321°
2026-05-07 17:51 34.11116 52.86695 33980 ft 454 kts 321°
2026-05-07 17:52 34.16652 52.83063 33978 ft 454 kts 321°
2026-05-07 17:52 34.22202 52.79426 33403 ft 448 kts 321°
2026-05-07 17:53 34.24891 52.77676 33151 ft 434 kts 321°
2026-05-07 17:53 34.27537 52.75940 32906 ft 431 kts 320°
2026-05-07 17:53 34.30155 52.74210 32640 ft 429 kts 320°
2026-05-07 17:53 34.32770 52.72476 32397 ft 428 kts 320°
2026-05-07 17:54 34.35377 52.70746 32135 ft 426 kts 320°
2026-05-07 17:54 34.37965 52.69035 31695 ft 422 kts 320°
2026-05-07 17:54 34.40538 52.67335 31157 ft 420 kts 320°
2026-05-07 17:54 34.43097 52.65643 30657 ft 417 kts 320°
2026-05-07 17:55 34.45642 52.63957 30153 ft 415 kts 320°
2026-05-07 17:55 34.48166 52.62284 29587 ft 413 kts 320°
2026-05-07 17:55 34.49830 52.61184 29257 ft 411 kts 320°
2026-05-07 17:55 34.53164 52.58982 28599 ft 405 kts 321°
2026-05-07 17:56 34.54798 52.57901 28296 ft 403 kts 321°
2026-05-07 17:56 34.57252 52.56274 27803 ft 400 kts 321°
2026-05-07 17:56 34.59695 52.54651 27327 ft 396 kts 321°
2026-05-07 17:56 34.62088 52.53060 26867 ft 393 kts 321°
2026-05-07 17:57 34.64469 52.51476 26415 ft 389 kts 321°
2026-05-07 17:57 34.66836 52.49900 25974 ft 386 kts 321°
2026-05-07 17:57 34.69183 52.48333 25536 ft 383 kts 321°
2026-05-07 17:57 34.71500 52.46784 25123 ft 379 kts 321°
2026-05-07 17:58 34.73805 52.45242 24698 ft 376 kts 322°
2026-05-07 17:58 34.76093 52.43710 24276 ft 374 kts 322°
2026-05-07 17:58 34.78369 52.42190 23852 ft 372 kts 322°
2026-05-07 17:58 34.80627 52.40684 23419 ft 370 kts 322°
2026-05-07 17:59 34.82878 52.39178 22955 ft 367 kts 322°
2026-05-07 17:59 34.85117 52.37681 22551 ft 364 kts 322°
2026-05-07 17:59 34.87322 52.36207 22143 ft 360 kts 322°
2026-05-07 17:59 34.89321 52.34513 21708 ft 347 kts 310°
2026-05-07 18:00 34.90961 52.32436 21302 ft 334 kts 300°
2026-05-07 18:00 34.92219 52.30113 20905 ft 323 kts 290°
2026-05-07 18:00 34.93220 52.27669 20522 ft 319 kts 289°
2026-05-07 18:00 34.94199 52.25273 20137 ft 317 kts 290°
2026-05-07 18:01 34.95184 52.22869 19748 ft 316 kts 290°
2026-05-07 18:01 34.96161 52.20475 19364 ft 314 kts 290°
2026-05-07 18:01 34.97132 52.18093 18988 ft 313 kts 290°
2026-05-07 18:01 34.98117 52.15664 18608 ft 333 kts 290°
2026-05-07 18:02 35.00226 52.10455 17724 ft 344 kts 291°
2026-05-07 18:02 35.01329 52.07733 17300 ft 374 kts 291°
2026-05-07 18:02 35.02507 52.04819 16834 ft 390 kts 292°
2026-05-07 18:03 35.03738 52.01772 16367 ft 408 kts 292°
2026-05-07 18:03 35.05064 51.98683 15893 ft 412 kts 296°
2026-05-07 18:03 35.06528 51.95670 15551 ft 413 kts 297°
2026-05-07 18:03 35.08024 51.92699 14971 ft 409 kts 298°
2026-05-07 18:04 35.09527 51.89774 14510 ft 401 kts 298°
2026-05-07 18:04 35.10986 51.86956 14399 ft 384 kts 299°
2026-05-07 18:04 35.12376 51.84266 14271 ft 363 kts 298°
2026-05-07 18:04 35.13664 51.81756 14043 ft 335 kts 298°
2026-05-07 18:05 35.14868 51.79385 13400 ft 322 kts 297°
2026-05-07 18:05 35.16029 51.77076 12587 ft 317 kts 297°
2026-05-07 18:05 35.17171 51.74793 11724 ft 314 kts 298°
2026-05-07 18:05 35.18307 51.72521 10869 ft 312 kts 298°
2026-05-07 18:06 35.19446 51.70241 10272 ft 315 kts 298°
2026-05-07 18:06 35.20585 51.67959 9882 ft 313 kts 298°
2026-05-07 18:06 35.21709 51.65710 9474 ft 312 kts 298°
2026-05-07 18:06 35.22834 51.63463 9136 ft 307 kts 298°
2026-05-07 18:07 35.23946 51.61246 8781 ft 304 kts 298°
2026-05-07 18:07 35.25043 51.59060 8420 ft 300 kts 298°
2026-05-07 18:07 35.26130 51.56891 8037 ft 298 kts 298°
2026-05-07 18:07 35.27206 51.54743 7708 ft 294 kts 298°
2026-05-07 18:08 35.28256 51.52648 7585 ft 283 kts 298°
2026-05-07 18:08 35.29267 51.50637 7464 ft 271 kts 298°
2026-05-07 18:08 35.30227 51.48721 7350 ft 259 kts 297°
2026-05-07 18:08 35.31154 51.46864 7140 ft 252 kts 297°
2026-05-07 18:09 35.32056 51.45050 6788 ft 248 kts 298°
2026-05-07 18:09 35.32953 51.43244 6360 ft 248 kts 298°
2026-05-07 18:09 35.33843 51.41452 5959 ft 244 kts 300°
2026-05-07 18:09 35.34701 51.39678 5520 ft 241 kts 296°
2026-05-07 18:10 35.35364 51.37808 5267 ft 236 kts 289°
2026-05-07 18:10 35.35909 51.35906 5256 ft 237 kts 288°
2026-05-07 18:10 35.36439 51.34004 5260 ft 237 kts 288°
2026-05-07 18:10 35.36961 51.32140 5239 ft 222 kts 288°
2026-05-07 18:11 35.37448 51.30406 5271 ft 210 kts 288°
2026-05-07 18:11 35.37761 51.29290 5227 ft 209 kts 288°
2026-05-07 18:11 35.38379 51.27086 4952 ft 204 kts 289°
2026-05-07 18:11 35.38816 51.25527 4754 ft 179 kts 289°
2026-05-07 18:12 35.39199 51.24159 4509 ft 165 kts 288°
2026-05-07 18:12 35.39560 51.22871 4293 ft 155 kts 288°
2026-05-07 18:12 35.39905 51.21636 4120 ft 153 kts 288°
2026-05-07 18:12 35.40247 51.20414 3939 ft 151 kts 288°
2026-05-07 18:13 35.40590 51.19187 3744 ft 152 kts 289°
2026-05-07 18:13 35.40930 51.17974 3554 ft 149 kts 288°
2026-05-07 18:13 35.41274 51.16769 3384 ft 151 kts 289°
2026-05-07 18:13 35.41606 51.15583 3258 ft 133 kts 286°
2026-05-07 18:14 35.41757 51.14978 3265 ft 45 kts 288°